M I D A S
Marine Information and Data Acquisition System
Tripno 1968 of the Zeeleeuw from 2010-09-29 05:11:20 to 2010-09-29 16:54:45
Back to CruiseResearch ActivitiesStationsMapUnderway DataData graphs

EquipmentUnitsComments
TimeDGPSUTC
LatitudeDGPSDM.mWGS84
LongitudeDGPSDM.mWGS84
SpeedMeteo Stationm/sRelative wind speed
DirectionMeteo StationdegRelative wind direction
TemperatureMeteo Stationdeg CelciusAir temperature
PressureMeteo StationPaAtmospheric pressure
HumidityMeteo Station%Relative humidity
Missing or incorrect values are displayed as -999
Metereological data collected by the RV Zeeleeuw from 2010-09-29 05:02:47 to 2010-09-29 17:04:34
                                                                                    Next 1000 lines
Time Latitude Longitude Speed Direction Temperature Pressure Humidity
2010-09-29 05:02:57 51°13.648 2°55.988 -999 306 13.3 101750 46
2010-09-29 05:03:02 51°13.648 2°55.985 -999 24 13.3 101740 46
2010-09-29 05:03:07 51°13.649 2°55.982 -999 305 13.3 101740 46
2010-09-29 05:03:12 51°13.65 2°55.979 -999 24 13.3 101740 46
2010-09-29 05:03:17 51°13.652 2°55.974 -999 306 13.3 101740 46
2010-09-29 05:03:23 51°13.653 2°55.969 -999 23 13.3 101750 47
2010-09-29 05:03:29 51°13.656 2°55.962 -999 305 13.3 101750 47
2010-09-29 05:03:34 51°13.658 2°55.956 -999 24 13.3 101740 47
2010-09-29 05:03:41 51°13.661 2°55.946 -999 305 13.3 101740 47
2010-09-29 05:03:46 51°13.662 2°55.939 -999 24 13.3 101750 47
2010-09-29 05:03:51 51°13.665 2°55.931 -999 306 13.3 101750 47
2010-09-29 05:03:56 51°13.667 2°55.923 -999 24 13.3 101750 46
2010-09-29 05:04:01 51°13.669 2°55.915 0.1 56 13.3 101750 46
2010-09-29 05:04:06 51°13.671 2°55.906 0.1 28 13.3 101740 46
2010-09-29 05:04:11 51°13.673 2°55.897 0.1 55 13.3 101740 46
2010-09-29 05:04:16 51°13.675 2°55.889 -999 24 13.3 101750 46
2010-09-29 05:04:21 51°13.677 2°55.88 0.1 54 13.3 101750 46
2010-09-29 05:04:26 51°13.68 2°55.871 0.1 29 13.3 101740 46
2010-09-29 05:04:31 51°13.682 2°55.862 0.1 54 13.3 101740 46
2010-09-29 05:04:36 51°13.684 2°55.854 0.1 24 13.3 101750 44
2010-09-29 05:04:41 51°13.686 2°55.845 -999 55 13.3 101750 44
2010-09-29 05:04:46 51°13.687 2°55.837 -999 24 13.3 101750 45
2010-09-29 05:04:51 51°13.69 2°55.829 0.1 51 13.3 101750 45
2010-09-29 05:04:56 51°13.691 2°55.821 0.1 22 13.3 101750 46
2010-09-29 05:05:01 51°13.693 2°55.813 0.1 50 13.3 101750 46
2010-09-29 05:05:06 51°13.695 2°55.805 0.1 22 13.3 101740 47
2010-09-29 05:05:11 51°13.696 2°55.797 0.1 55 13.3 101740 47
2010-09-29 05:05:16 51°13.698 2°55.79 -999 27 13.3 101750 47
2010-09-29 05:05:21 51°13.7 2°55.783 -999 55 13.3 101750 47
2010-09-29 05:05:25 51°13.701 2°55.778 -999 24 13.3 101750 46
2010-09-29 05:05:30 51°13.702 2°55.771 -999 55 13.3 101750 46
2010-09-29 05:05:35 51°13.704 2°55.764 0.1 20 13.3 101750 46
2010-09-29 05:05:41 51°13.705 2°55.756 0.1 54 13.3 101750 46
2010-09-29 05:05:45 51°13.706 2°55.752 0.1 23 13.3 101750 46
2010-09-29 05:05:51 51°13.707 2°55.748 0.1 300 13.3 101750 46
2010-09-29 05:05:56 51°13.707 2°55.745 0.1 330 13.3 101750 46
2010-09-29 05:06:01 51°13.707 2°55.745 0.3 337 13.3 101750 46
2010-09-29 05:06:05 51°13.708 2°55.745 0.2 337 13.3 101750 46
2010-09-29 05:06:11 51°13.709 2°55.746 0.5 337 13.3 101750 46
2010-09-29 05:06:16 51°13.709 2°55.748 0.5 336 13.3 101750 46
2010-09-29 05:06:21 51°13.71 2°55.749 0.2 343 13.3 101750 46
2010-09-29 05:06:25 51°13.711 2°55.749 0.1 344 13.3 101740 46
2010-09-29 05:06:31 51°13.711 2°55.749 0.4 345 13.3 101740 46
2010-09-29 05:06:35 51°13.711 2°55.749 0.2 348 13.3 101750 46
2010-09-29 05:06:41 51°13.711 2°55.748 0.2 358 13.3 101750 46
2010-09-29 05:06:45 51°13.71 2°55.745 0.3 1 13.3 101750 47
2010-09-29 05:06:50 51°13.709 2°55.743 0.2 7 13.3 101750 47
2010-09-29 05:06:55 51°13.708 2°55.739 0.1 11 13.3 101750 46
2010-09-29 05:07:00 51°13.706 2°55.736 0.2 13 13.3 101750 46
2010-09-29 05:07:05 51°13.705 2°55.733 0.2 13 13.3 101750 47
2010-09-29 05:07:10 51°13.703 2°55.73 0.1 13 13.3 101750 47
2010-09-29 05:07:16 51°13.702 2°55.727 -999 13 13.3 101740 47
2010-09-29 05:07:21 51°13.701 2°55.726 0.3 12 13.3 101740 47
2010-09-29 05:07:26 51°13.701 2°55.726 0.3 5 13.3 101740 45
2010-09-29 05:07:31 51°13.703 2°55.726 0.3 5 13.3 101740 45
2010-09-29 05:07:36 51°13.704 2°55.727 0.3 5 13.3 101750 47
2010-09-29 05:07:41 51°13.707 2°55.727 0.4 3 13.3 101750 47
2010-09-29 05:07:46 51°13.71 2°55.728 0.8 3 13.3 101750 47
2010-09-29 05:07:51 51°13.713 2°55.727 0.6 4 13.3 101750 47
2010-09-29 05:07:56 51°13.717 2°55.726 0.7 4 13.3 101740 46
2010-09-29 05:08:01 51°13.721 2°55.724 0.7 8 13.3 101740 46
2010-09-29 05:08:06 51°13.726 2°55.721 0.6 6 13.3 101750 48
2010-09-29 05:08:11 51°13.731 2°55.717 0.3 7 13.3 101750 48
2010-09-29 05:08:15 51°13.736 2°55.714 0.2 5 13.3 101740 46
2010-09-29 05:08:21 51°13.743 2°55.708 0.1 356 13.3 101740 46
2010-09-29 05:08:25 51°13.749 2°55.704 0.3 356 13.3 101740 49
2010-09-29 05:08:30 51°13.756 2°55.698 0.2 349 13.3 101740 49
2010-09-29 05:08:35 51°13.763 2°55.692 0.8 349 13.3 101740 47
2010-09-29 05:08:40 51°13.771 2°55.686 1 350 13.3 101740 47
2010-09-29 05:08:45 51°13.779 2°55.678 0.6 350 13.3 101740 47
2010-09-29 05:08:49 51°13.786 2°55.673 1.4 350 13.3 101740 47
2010-09-29 05:08:54 51°13.795 2°55.665 1.4 340 13.3 101750 47
2010-09-29 05:08:59 51°13.804 2°55.658 2 345 13.3 101750 47
2010-09-29 05:09:04 51°13.813 2°55.65 2.1 343 13.3 101740 46
2010-09-29 05:09:09 51°13.824 2°55.642 2.3 340 13.3 101740 46
2010-09-29 05:09:13 51°13.832 2°55.635 2.1 344 13.3 101740 45
2010-09-29 05:09:18 51°13.842 2°55.627 2.9 338 13.3 101740 45
2010-09-29 05:09:23 51°13.853 2°55.618 2.7 343 13.3 101750 48
2010-09-29 05:09:29 51°13.867 2°55.608 3.6 339 13.3 101750 48
2010-09-29 05:09:33 51°13.876 2°55.601 2.9 342 13.3 101740 45
2010-09-29 05:09:38 51°13.888 2°55.591 2.6 342 13.3 101740 45
2010-09-29 05:09:43 51°13.9 2°55.582 2.9 343 13.3 101740 48
2010-09-29 05:09:47 51°13.91 2°55.575 2.9 341 13.3 101740 48
2010-09-29 05:09:52 51°13.922 2°55.566 2.9 347 13.3 101740 45
2010-09-29 05:09:57 51°13.934 2°55.557 2.8 349 13.3 101740 45
2010-09-29 05:10:02 51°13.946 2°55.548 2.9 348 13.3 101750 47
2010-09-29 05:10:07 51°13.958 2°55.538 3.1 342 13.3 101750 47
2010-09-29 05:10:12 51°13.971 2°55.529 3.1 345 13.3 101740 48
2010-09-29 05:10:17 51°13.983 2°55.519 3.3 345 13.3 101740 48
2010-09-29 05:10:22 51°13.995 2°55.509 3.3 348 13.3 101740 46
2010-09-29 05:10:27 51°14.008 2°55.5 2.7 345 13.3 101740 46
2010-09-29 05:10:32 51°14.02 2°55.49 3.4 344 13.3 101750 48
2010-09-29 05:10:37 51°14.032 2°55.48 3.3 346 13.3 101750 48
2010-09-29 05:10:42 51°14.045 2°55.471 3 350 13.3 101750 46
2010-09-29 05:10:47 51°14.057 2°55.461 2.8 348 13.3 101750 46
2010-09-29 05:10:52 51°14.07 2°55.451 2.9 345 13.3 101740 45
2010-09-29 05:10:57 51°14.082 2°55.442 3.1 344 13.3 101740 45
2010-09-29 05:11:02 51°14.095 2°55.432 3.6 341 13.3 101750 48
2010-09-29 05:11:07 51°14.107 2°55.422 3.3 345 13.3 101750 48
2010-09-29 05:11:12 51°14.12 2°55.412 3.5 342 13.3 101750 46
2010-09-29 05:11:17 51°14.133 2°55.402 3.4 351 13.3 101750 46
2010-09-29 05:11:22 51°14.145 2°55.392 2.5 350 13.3 101750 45
2010-09-29 05:11:27 51°14.157 2°55.382 2.9 343 13.3 101750 45
2010-09-29 05:11:32 51°14.17 2°55.372 3.5 345 13.3 101750 46
2010-09-29 05:11:37 51°14.183 2°55.361 3.2 347 13.3 101750 46
2010-09-29 05:11:42 51°14.196 2°55.35 3 342 13.3 101740 46
2010-09-29 05:11:47 51°14.208 2°55.34 3.3 341 13.3 101740 46
2010-09-29 05:11:53 51°14.223 2°55.326 3.6 342 13.3 101740 47
2010-09-29 05:11:57 51°14.233 2°55.316 3.2 346 13.3 101740 47
2010-09-29 05:12:02 51°14.246 2°55.304 3.1 345 13.4 101740 45
2010-09-29 05:12:07 51°14.258 2°55.292 2.9 345 13.4 101740 45
2010-09-29 05:12:12 51°14.271 2°55.279 3.4 342 13.3 101750 48
2010-09-29 05:12:17 51°14.283 2°55.266 3.5 342 13.3 101750 48
2010-09-29 05:12:22 51°14.295 2°55.253 3.6 340 13.3 101740 48
2010-09-29 05:12:27 51°14.308 2°55.24 3.3 344 13.3 101740 48
2010-09-29 05:12:32 51°14.321 2°55.227 3.3 345 13.3 101740 48
2010-09-29 05:12:37 51°14.333 2°55.214 3.6 345 13.3 101740 48
2010-09-29 05:12:42 51°14.346 2°55.202 3.3 345 13.3 101750 47
2010-09-29 05:12:47 51°14.36 2°55.191 3.6 343 13.3 101750 47
2010-09-29 05:12:52 51°14.373 2°55.179 3.4 346 13.3 101740 45
2010-09-29 05:12:57 51°14.386 2°55.167 3.8 344 13.3 101740 45
2010-09-29 05:13:02 51°14.4 2°55.154 3.3 346 13.3 101740 45
2010-09-29 05:13:07 51°14.414 2°55.142 3.7 345 13.3 101740 45
2010-09-29 05:13:12 51°14.427 2°55.129 3.8 343 13.3 101740 48
2010-09-29 05:13:17 51°14.441 2°55.116 3.8 346 13.3 101740 48
2010-09-29 05:13:22 51°14.455 2°55.103 4 344 13.3 101740 48
2010-09-29 05:13:27 51°14.469 2°55.089 3.9 345 13.3 101740 48
2010-09-29 05:13:32 51°14.483 2°55.076 3.8 345 13.3 101740 46
2010-09-29 05:13:37 51°14.498 2°55.063 3.9 346 13.3 101740 46
2010-09-29 05:13:42 51°14.512 2°55.049 3.9 345 13.3 101740 45
2010-09-29 05:13:47 51°14.527 2°55.035 3.6 347 13.3 101740 45
2010-09-29 05:13:52 51°14.542 2°55.02 3.7 345 13.3 101740 47
2010-09-29 05:13:57 51°14.557 2°55.006 4.1 343 13.3 101740 47
2010-09-29 05:14:02 51°14.572 2°54.99 4.4 345 13.3 101740 45
2010-09-29 05:14:07 51°14.588 2°54.975 3.9 345 13.3 101740 45
2010-09-29 05:14:12 51°14.603 2°54.959 4.7 345 13.3 101750 46
2010-09-29 05:14:17 51°14.619 2°54.944 4.5 345 13.3 101750 46
2010-09-29 05:14:22 51°14.634 2°54.929 4.2 346 13.3 101750 48
2010-09-29 05:14:27 51°14.65 2°54.913 4.2 347 13.3 101750 48
2010-09-29 05:14:32 51°14.666 2°54.897 4.3 346 13.3 101740 46
2010-09-29 05:14:37 51°14.681 2°54.881 4.6 344 13.3 101740 46
2010-09-29 05:14:42 51°14.697 2°54.865 4 346 13.3 101740 48
2010-09-29 05:14:47 51°14.713 2°54.849 4.3 345 13.3 101740 48
2010-09-29 05:14:52 51°14.728 2°54.834 4.5 346 13.3 101750 47
2010-09-29 05:14:57 51°14.744 2°54.817 5 346 13.3 101750 47
2010-09-29 05:15:02 51°14.76 2°54.803 4.2 347 13.3 101750 48
2010-09-29 05:15:07 51°14.776 2°54.787 5.2 348 13.3 101750 48
2010-09-29 05:15:12 51°14.792 2°54.772 4.5 345 13.3 101740 46
2010-09-29 05:15:17 51°14.807 2°54.756 4.3 348 13.3 101740 46
2010-09-29 05:15:22 51°14.823 2°54.74 3.9 347 13.3 101740 47
2010-09-29 05:15:28 51°14.842 2°54.722 4.3 345 13.3 101740 47
2010-09-29 05:15:33 51°14.857 2°54.705 4.6 347 13.3 101740 45
2010-09-29 05:15:39 51°14.875 2°54.685 4.3 346 13.3 101740 45
2010-09-29 05:15:45 51°14.893 2°54.666 4.5 347 13.3 101740 48
2010-09-29 05:15:50 51°14.908 2°54.648 3.8 345 13.3 101740 48
2010-09-29 05:15:55 51°14.923 2°54.631 4.1 345 13.3 101740 48
2010-09-29 05:16:00 51°14.938 2°54.614 4.3 344 13.3 101740 48
2010-09-29 05:16:05 51°14.952 2°54.597 4.3 347 13.3 101740 46
2010-09-29 05:16:10 51°14.967 2°54.581 4.6 347 13.3 101740 46
2010-09-29 05:16:15 51°14.983 2°54.564 4.4 347 13.4 101740 45
2010-09-29 05:16:20 51°14.998 2°54.547 4.6 346 13.4 101740 45
2010-09-29 05:16:25 51°15.013 2°54.531 4.5 345 13.3 101740 48
2010-09-29 05:16:29 51°15.025 2°54.518 4.4 346 13.3 101740 48
2010-09-29 05:16:34 51°15.04 2°54.5 4.1 348 13.3 101740 45
2010-09-29 05:16:39 51°15.055 2°54.483 4.3 346 13.3 101740 45
2010-09-29 05:16:44 51°15.07 2°54.465 4.4 346 13.3 101750 45
2010-09-29 05:16:49 51°15.085 2°54.448 4.4 343 13.3 101750 45
2010-09-29 05:16:53 51°15.097 2°54.434 5 346 13.3 101740 46
2010-09-29 05:16:58 51°15.111 2°54.416 4 344 13.3 101740 46
2010-09-29 05:17:03 51°15.126 2°54.398 4.1 343 13.4 101750 47
2010-09-29 05:17:08 51°15.14 2°54.38 4 344 13.4 101750 47
2010-09-29 05:17:13 51°15.155 2°54.361 4.1 343 13.3 101750 48
2010-09-29 05:17:17 51°15.166 2°54.347 3.7 345 13.3 101750 48
2010-09-29 05:17:22 51°15.18 2°54.329 4.5 344 13.3 101740 48
2010-09-29 05:17:27 51°15.195 2°54.311 3.9 344 13.3 101740 48
2010-09-29 05:17:32 51°15.209 2°54.293 4 346 13.4 101750 46
2010-09-29 05:17:37 51°15.224 2°54.275 4.3 345 13.4 101750 46
2010-09-29 05:17:42 51°15.238 2°54.257 4.1 345 13.4 101750 47
2010-09-29 05:17:47 51°15.252 2°54.24 3.7 345 13.4 101750 47
2010-09-29 05:17:52 51°15.267 2°54.221 4 344 13.4 101740 48
2010-09-29 05:17:57 51°15.281 2°54.204 4 349 13.4 101740 48
2010-09-29 05:18:02 51°15.296 2°54.186 3.9 351 13.4 101740 47
2010-09-29 05:18:07 51°15.31 2°54.169 3.7 348 13.4 101740 47
2010-09-29 05:18:12 51°15.324 2°54.151 3.8 346 13.4 101750 46
2010-09-29 05:18:17 51°15.338 2°54.134 4 347 13.4 101750 46
2010-09-29 05:18:22 51°15.353 2°54.116 3.8 350 13.4 101750 46
2010-09-29 05:18:27 51°15.367 2°54.098 4.2 346 13.4 101750 46
2010-09-29 05:18:32 51°15.381 2°54.08 4 344 13.4 101740 46
2010-09-29 05:18:37 51°15.396 2°54.062 3.6 351 13.4 101740 46
2010-09-29 05:18:42 51°15.41 2°54.043 3.5 349 13.4 101740 48
2010-09-29 05:18:47 51°15.424 2°54.025 3.6 348 13.4 101740 48
2010-09-29 05:18:52 51°15.437 2°54.006 3.8 349 13.4 101750 46
2010-09-29 05:18:57 51°15.452 2°53.986 3.5 348 13.4 101750 46
2010-09-29 05:19:02 51°15.465 2°53.967 3.5 350 13.4 101750 46
2010-09-29 05:19:07 51°15.479 2°53.948 3.9 344 13.4 101750 46
2010-09-29 05:19:12 51°15.493 2°53.928 3.9 348 13.4 101750 46
2010-09-29 05:19:17 51°15.507 2°53.909 3.7 347 13.4 101750 46
2010-09-29 05:19:22 51°15.521 2°53.889 3.9 345 13.4 101750 46
2010-09-29 05:19:27 51°15.534 2°53.869 3.6 348 13.4 101750 46
2010-09-29 05:19:32 51°15.548 2°53.849 3.2 349 13.4 101750 45
2010-09-29 05:19:37 51°15.562 2°53.829 3.4 348 13.4 101750 45
2010-09-29 05:19:42 51°15.575 2°53.809 3.6 349 13.4 101750 45
2010-09-29 05:19:47 51°15.589 2°53.79 3.3 348 13.4 101750 45
2010-09-29 05:19:52 51°15.603 2°53.77 4 347 13.4 101750 46
2010-09-29 05:19:57 51°15.617 2°53.751 3.7 348 13.4 101750 46
2010-09-29 05:20:02 51°15.631 2°53.731 3.7 347 13.4 101750 46
2010-09-29 05:20:08 51°15.647 2°53.708 3.8 347 13.4 101750 46
2010-09-29 05:20:12 51°15.658 2°53.692 3.9 344 13.4 101750 45
2010-09-29 05:20:17 51°15.672 2°53.673 3.9 347 13.4 101750 45
2010-09-29 05:20:22 51°15.686 2°53.654 3.7 346 13.4 101750 46
2010-09-29 05:20:27 51°15.7 2°53.635 3.2 348 13.4 101750 46
2010-09-29 05:20:32 51°15.714 2°53.617 4 346 13.4 101750 48
2010-09-29 05:20:37 51°15.728 2°53.598 3.7 349 13.4 101750 48
2010-09-29 05:20:42 51°15.742 2°53.579 3.4 351 13.4 101750 44
2010-09-29 05:20:48 51°15.758 2°53.556 3.9 351 13.4 101750 44
2010-09-29 05:20:52 51°15.77 2°53.541 3.5 349 13.4 101750 46
2010-09-29 05:20:57 51°15.783 2°53.522 4 349 13.4 101750 46
2010-09-29 05:21:02 51°15.797 2°53.503 3.9 348 13.4 101750 46
2010-09-29 05:21:07 51°15.811 2°53.485 3.6 345 13.4 101750 46
2010-09-29 05:21:12 51°15.825 2°53.466 3.6 348 13.4 101750 48
2010-09-29 05:21:17 51°15.838 2°53.447 3.9 349 13.4 101750 48
2010-09-29 05:21:22 51°15.852 2°53.429 3.5 346 13.4 101750 48
2010-09-29 05:21:27 51°15.866 2°53.41 4 346 13.4 101750 48
2010-09-29 05:21:32 51°15.88 2°53.392 4.1 347 13.5 101750 46
2010-09-29 05:21:37 51°15.894 2°53.375 3.8 348 13.5 101750 46
2010-09-29 05:21:42 51°15.908 2°53.356 4 347 13.4 101750 45
2010-09-29 05:21:47 51°15.922 2°53.338 4.5 348 13.4 101750 45
2010-09-29 05:21:52 51°15.937 2°53.322 4.4 346 13.5 101750 46
2010-09-29 05:21:57 51°15.951 2°53.304 4.6 351 13.5 101750 46
2010-09-29 05:22:02 51°15.967 2°53.289 4.4 348 13.5 101750 48
2010-09-29 05:22:07 51°15.983 2°53.273 4.8 349 13.5 101750 48
2010-09-29 05:22:12 51°15.999 2°53.259 4.9 348 13.5 101750 46
2010-09-29 05:22:17 51°16.015 2°53.245 4.8 347 13.5 101750 46
2010-09-29 05:22:22 51°16.031 2°53.233 5 348 13.5 101750 46
2010-09-29 05:22:27 51°16.048 2°53.22 5.2 348 13.5 101750 46
2010-09-29 05:22:32 51°16.065 2°53.207 4.9 349 13.5 101750 46
2010-09-29 05:22:37 51°16.082 2°53.195 4.5 348 13.5 101750 46
2010-09-29 05:22:42 51°16.098 2°53.184 5.5 349 13.5 101750 46
2010-09-29 05:22:47 51°16.116 2°53.172 5 348 13.5 101750 46
2010-09-29 05:22:52 51°16.133 2°53.161 4.8 350 13.5 101750 46
2010-09-29 05:22:57 51°16.15 2°53.149 5.4 349 13.5 101750 46
2010-09-29 05:23:02 51°16.167 2°53.137 4.8 350 13.5 101750 46
2010-09-29 05:23:07 51°16.184 2°53.126 4.7 350 13.5 101750 46
2010-09-29 05:23:12 51°16.201 2°53.115 5.2 352 13.5 101750 46
2010-09-29 05:23:17 51°16.219 2°53.103 4.3 350 13.5 101750 46
2010-09-29 05:23:22 51°16.236 2°53.092 4.6 349 13.5 101750 45
2010-09-29 05:23:27 51°16.253 2°53.08 4.9 349 13.5 101750 45
2010-09-29 05:23:32 51°16.27 2°53.069 4.3 349 13.5 101750 46
2010-09-29 05:23:37 51°16.288 2°53.057 5.3 348 13.5 101750 46
2010-09-29 05:23:42 51°16.305 2°53.046 5.2 349 13.5 101750 46
2010-09-29 05:23:47 51°16.322 2°53.034 4.6 349 13.5 101750 46
2010-09-29 05:23:52 51°16.34 2°53.023 4.7 347 13.5 101750 46
2010-09-29 05:23:57 51°16.357 2°53.012 5.3 350 13.5 101750 46
2010-09-29 05:24:02 51°16.374 2°53 4.7 348 13.5 101760 48
2010-09-29 05:24:07 51°16.392 2°52.988 4.7 348 13.5 101760 48
2010-09-29 05:24:12 51°16.409 2°52.977 4.9 350 13.5 101750 46
2010-09-29 05:24:17 51°16.426 2°52.965 4.9 352 13.5 101750 46
2010-09-29 05:24:22 51°16.444 2°52.954 4.8 352 13.5 101760 48
2010-09-29 05:24:27 51°16.461 2°52.942 5.8 348 13.5 101760 48
2010-09-29 05:24:32 51°16.478 2°52.93 5 350 13.6 101750 46
2010-09-29 05:24:37 51°16.495 2°52.918 5.2 350 13.6 101750 46
2010-09-29 05:24:42 51°16.513 2°52.907 4.7 350 13.6 101750 48
2010-09-29 05:24:47 51°16.53 2°52.895 5.1 348 13.6 101750 48
2010-09-29 05:24:52 51°16.547 2°52.883 4.4 350 13.6 101750 49
2010-09-29 05:24:57 51°16.564 2°52.871 5.1 351 13.6 101750 49
2010-09-29 05:25:02 51°16.581 2°52.859 4.7 350 13.6 101750 48
2010-09-29 05:25:07 51°16.599 2°52.847 4.3 350 13.6 101750 48
2010-09-29 05:25:12 51°16.616 2°52.835 4.7 352 13.5 101750 46
2010-09-29 05:25:17 51°16.633 2°52.823 4.6 350 13.5 101750 46
2010-09-29 05:25:22 51°16.65 2°52.811 4.5 350 13.5 101760 47
2010-09-29 05:25:27 51°16.667 2°52.8 4.7 349 13.5 101760 47
2010-09-29 05:25:32 51°16.685 2°52.788 4.4 350 13.5 101750 46
2010-09-29 05:25:37 51°16.702 2°52.776 4.7 350 13.5 101750 46
2010-09-29 05:25:42 51°16.719 2°52.764 4.5 350 13.6 101750 46
2010-09-29 05:25:47 51°16.736 2°52.753 5.1 348 13.6 101750 46
2010-09-29 05:25:52 51°16.753 2°52.741 4.9 351 13.5 101760 48
2010-09-29 05:25:57 51°16.771 2°52.729 5.1 350 13.5 101760 48
2010-09-29 05:26:02 51°16.788 2°52.717 4.7 350 13.6 101760 46
2010-09-29 05:26:07 51°16.805 2°52.705 4.4 349 13.6 101760 46
2010-09-29 05:26:12 51°16.821 2°52.693 4.5 350 13.6 101760 48
2010-09-29 05:26:17 51°16.839 2°52.68 4.1 351 13.6 101760 48
2010-09-29 05:26:22 51°16.855 2°52.668 3.9 350 13.6 101750 48
2010-09-29 05:26:27 51°16.872 2°52.655 4.6 349 13.6 101750 48
2010-09-29 05:26:32 51°16.889 2°52.643 4.8 348 13.6 101760 48
2010-09-29 05:26:37 51°16.906 2°52.63 4.7 348 13.6 101760 48
2010-09-29 05:26:42 51°16.923 2°52.618 4.6 349 13.6 101750 47
2010-09-29 05:26:47 51°16.94 2°52.605 4.5 348 13.6 101750 47
2010-09-29 05:26:52 51°16.957 2°52.593 4.1 349 13.6 101760 48
2010-09-29 05:26:57 51°16.973 2°52.58 4.4 352 13.6 101760 48
2010-09-29 05:27:02 51°16.99 2°52.568 4.3 349 13.6 101760 46
2010-09-29 05:27:07 51°17.007 2°52.555 4.2 348 13.6 101760 46
2010-09-29 05:27:12 51°17.024 2°52.543 4.5 351 13.6 101760 46
2010-09-29 05:27:17 51°17.041 2°52.53 4.1 350 13.6 101760 46
2010-09-29 05:27:22 51°17.058 2°52.518 4.6 348 13.6 101770 46
2010-09-29 05:27:27 51°17.075 2°52.506 4 348 13.6 101770 46
2010-09-29 05:27:32 51°17.092 2°52.495 4.9 348 13.6 101760 46
2010-09-29 05:27:37 51°17.11 2°52.487 4.7 347 13.6 101760 46
2010-09-29 05:27:42 51°17.128 2°52.477 4.8 350 13.6 101760 49
2010-09-29 05:27:47 51°17.147 2°52.471 4.8 349 13.6 101760 49
2010-09-29 05:27:52 51°17.164 2°52.463 5.1 350 13.6 101750 48
2010-09-29 05:27:57 51°17.183 2°52.457 4.8 349 13.6 101750 48
2010-09-29 05:28:02 51°17.201 2°52.451 5.2 350 13.6 101760 48
2010-09-29 05:28:07 51°17.22 2°52.446 4.9 347 13.6 101760 48
2010-09-29 05:28:12 51°17.238 2°52.44 6.2 349 13.6 101760 46
2010-09-29 05:28:17 51°17.257 2°52.435 5.1 350 13.6 101760 46
2010-09-29 05:28:22 51°17.275 2°52.431 5.1 348 13.6 101760 48
2010-09-29 05:28:27 51°17.294 2°52.426 5 348 13.6 101760 48
2010-09-29 05:28:32 51°17.313 2°52.422 5.2 349 13.6 101760 46
2010-09-29 05:28:37 51°17.331 2°52.418 5.2 346 13.6 101760 46
2010-09-29 05:28:42 51°17.35 2°52.414 5.7 348 13.6 101750 45
2010-09-29 05:28:47 51°17.369 2°52.41 5 350 13.6 101750 45
2010-09-29 05:28:52 51°17.388 2°52.406 5.6 349 13.6 101760 46
2010-09-29 05:28:57 51°17.407 2°52.402 5.1 349 13.6 101760 46
2010-09-29 05:29:02 51°17.425 2°52.397 6 349 13.7 101760 46
2010-09-29 05:29:08 51°17.448 2°52.392 5.4 349 13.7 101760 46
2010-09-29 05:29:12 51°17.462 2°52.388 4.8 346 13.6 101750 48
2010-09-29 05:29:17 51°17.481 2°52.383 5.3 348 13.6 101750 48
2010-09-29 05:29:22 51°17.499 2°52.379 5.7 348 13.7 101750 46
2010-09-29 05:29:27 51°17.518 2°52.376 5.8 348 13.7 101750 46
2010-09-29 05:29:32 51°17.537 2°52.373 5.6 349 13.7 101750 46
2010-09-29 05:29:37 51°17.556 2°52.371 6.4 347 13.7 101750 46
2010-09-29 05:29:42 51°17.575 2°52.369 6.4 348 13.7 101760 46
2010-09-29 05:29:47 51°17.594 2°52.368 6.3 348 13.7 101760 46
2010-09-29 05:29:52 51°17.613 2°52.367 6 348 13.7 101760 46
2010-09-29 05:29:57 51°17.631 2°52.366 6.8 348 13.7 101760 46
2010-09-29 05:30:02 51°17.65 2°52.365 6.3 348 13.7 101760 48
2010-09-29 05:30:07 51°17.669 2°52.364 6.9 347 13.7 101760 48
2010-09-29 05:30:12 51°17.688 2°52.365 6.6 347 13.7 101750 46
2010-09-29 05:30:17 51°17.707 2°52.364 6.1 349 13.7 101750 46
2010-09-29 05:30:22 51°17.725 2°52.366 6.6 348 13.7 101760 48
2010-09-29 05:30:27 51°17.744 2°52.365 6.6 348 13.7 101760 48
2010-09-29 05:30:32 51°17.763 2°52.366 6.4 348 13.7 101760 46
2010-09-29 05:30:37 51°17.782 2°52.366 7 350 13.7 101760 46
2010-09-29 05:30:42 51°17.801 2°52.366 6.4 349 13.7 101750 48
2010-09-29 05:30:47 51°17.82 2°52.366 6.7 350 13.7 101750 48
2010-09-29 05:30:52 51°17.839 2°52.366 6 346 13.7 101750 46
2010-09-29 05:30:57 51°17.858 2°52.367 7.1 348 13.7 101750 46
2010-09-29 05:31:02 51°17.877 2°52.367 7.4 347 13.7 101760 47
2010-09-29 05:31:07 51°17.896 2°52.367 6.3 347 13.7 101760 47
2010-09-29 05:31:12 51°17.915 2°52.367 6.8 350 13.7 101750 46
2010-09-29 05:31:17 51°17.934 2°52.368 6.6 349 13.7 101750 46
2010-09-29 05:31:22 51°17.954 2°52.368 6.3 350 13.7 101760 47
2010-09-29 05:31:27 51°17.973 2°52.368 6.7 348 13.7 101760 47
2010-09-29 05:31:32 51°17.992 2°52.368 7.7 348 13.7 101750 48
2010-09-29 05:31:37 51°18.011 2°52.368 7.4 348 13.7 101750 48
2010-09-29 05:31:42 51°18.03 2°52.369 7 348 13.7 101760 48
2010-09-29 05:31:47 51°18.049 2°52.368 6.1 349 13.7 101760 48
2010-09-29 05:31:52 51°18.068 2°52.369 7 349 13.7 101760 46
2010-09-29 05:31:57 51°18.087 2°52.368 6.8 348 13.7 101760 46
2010-09-29 05:32:02 51°18.107 2°52.368 7.1 349 13.7 101750 46
2010-09-29 05:32:07 51°18.126 2°52.369 6.4 349 13.7 101750 46
2010-09-29 05:32:12 51°18.145 2°52.369 6.8 348 13.7 101750 46
2010-09-29 05:32:17 51°18.164 2°52.37 6.7 349 13.7 101750 46
2010-09-29 05:32:22 51°18.183 2°52.37 6.8 349 13.8 101750 48
2010-09-29 05:32:27 51°18.202 2°52.369 7 349 13.8 101750 48
2010-09-29 05:32:32 51°18.221 2°52.369 7.3 348 13.8 101760 46
2010-09-29 05:32:37 51°18.24 2°52.37 7.1 350 13.8 101760 46
2010-09-29 05:32:42 51°18.259 2°52.369 6.8 351 13.8 101750 48
2010-09-29 05:32:47 51°18.278 2°52.369 6.6 347 13.8 101750 48
2010-09-29 05:32:52 51°18.297 2°52.369 7 349 13.8 101750 46
2010-09-29 05:32:57 51°18.317 2°52.369 6.5 348 13.8 101750 46
2010-09-29 05:33:02 51°18.336 2°52.369 7.7 349 13.8 101760 46
2010-09-29 05:33:07 51°18.354 2°52.369 7.1 350 13.8 101760 46
2010-09-29 05:33:12 51°18.373 2°52.369 6.6 349 13.8 101750 46
2010-09-29 05:33:17 51°18.393 2°52.368 6.6 349 13.8 101750 46
2010-09-29 05:33:22 51°18.412 2°52.369 7.3 348 13.8 101750 46
2010-09-29 05:33:27 51°18.431 2°52.368 6.6 347 13.8 101750 46
2010-09-29 05:33:32 51°18.45 2°52.368 7.6 348 13.8 101760 46
2010-09-29 05:33:37 51°18.469 2°52.367 7.2 350 13.8 101760 46
2010-09-29 05:33:42 51°18.489 2°52.366 6.4 351 13.8 101760 46
2010-09-29 05:33:47 51°18.507 2°52.366 6.8 351 13.8 101760 46
2010-09-29 05:33:52 51°18.526 2°52.365 6.6 350 13.9 101760 48
2010-09-29 05:33:57 51°18.545 2°52.365 6.9 349 13.9 101760 48
2010-09-29 05:34:02 51°18.565 2°52.365 7.4 349 13.8 101750 47
2010-09-29 05:34:07 51°18.584 2°52.365 6.5 350 13.8 101750 47
2010-09-29 05:34:12 51°18.603 2°52.365 6.9 350 13.9 101760 47
2010-09-29 05:34:17 51°18.622 2°52.365 7.6 350 13.9 101760 47
2010-09-29 05:34:22 51°18.641 2°52.365 6.8 350 13.9 101760 48
2010-09-29 05:34:27 51°18.66 2°52.365 7.1 350 13.9 101760 48
2010-09-29 05:34:32 51°18.679 2°52.365 7.4 348 13.9 101750 48
2010-09-29 05:34:37 51°18.698 2°52.365 7.1 350 13.9 101750 48
2010-09-29 05:34:42 51°18.717 2°52.364 6.8 351 13.9 101750 48
2010-09-29 05:34:47 51°18.736 2°52.364 7.3 349 13.9 101750 48
2010-09-29 05:34:52 51°18.754 2°52.364 7 350 13.9 101750 46
2010-09-29 05:34:57 51°18.773 2°52.362 7.4 350 13.9 101750 46
2010-09-29 05:35:02 51°18.792 2°52.362 6.8 349 13.9 101750 48
2010-09-29 05:35:07 51°18.811 2°52.362 6.1 349 13.9 101750 48
2010-09-29 05:35:12 51°18.83 2°52.362 7.3 348 13.9 101760 46
2010-09-29 05:35:17 51°18.849 2°52.362 6.7 349 13.9 101760 46
2010-09-29 05:35:22 51°18.868 2°52.362 6.6 349 13.9 101750 48
2010-09-29 05:35:27 51°18.887 2°52.361 7.2 350 13.9 101750 48
2010-09-29 05:35:32 51°18.906 2°52.361 7.4 350 13.9 101750 46
2010-09-29 05:35:37 51°18.925 2°52.362 7 350 13.9 101750 46
2010-09-29 05:35:42 51°18.944 2°52.362 7.1 351 13.9 101750 47
2010-09-29 05:35:47 51°18.963 2°52.362 6.9 351 13.9 101750 47
2010-09-29 05:35:52 51°18.983 2°52.363 6.5 351 13.9 101760 47
2010-09-29 05:35:57 51°19.002 2°52.363 6.4 351 13.9 101760 47
2010-09-29 05:36:02 51°19.021 2°52.364 6.8 348 13.9 101760 46
2010-09-29 05:36:07 51°19.039 2°52.364 7.7 349 13.9 101760 46
2010-09-29 05:36:12 51°19.058 2°52.365 6.9 350 13.9 101750 48
2010-09-29 05:36:17 51°19.077 2°52.366 6.7 348 13.9 101750 48
2010-09-29 05:36:22 51°19.096 2°52.367 7.1 347 13.9 101750 48
2010-09-29 05:36:27 51°19.115 2°52.368 6.7 349 13.9 101750 48
2010-09-29 05:36:32 51°19.133 2°52.368 7.2 349 13.9 101750 48
2010-09-29 05:36:37 51°19.152 2°52.369 7.2 347 13.9 101750 48
2010-09-29 05:36:42 51°19.171 2°52.37 6.5 347 13.9 101750 45
2010-09-29 05:36:47 51°19.19 2°52.371 7.3 347 13.9 101750 45
2010-09-29 05:36:52 51°19.209 2°52.372 7.7 347 13.9 101760 46
2010-09-29 05:36:57 51°19.227 2°52.373 6.7 348 13.9 101760 46
2010-09-29 05:37:02 51°19.246 2°52.374 7.5 348 13.9 101760 48
2010-09-29 05:37:07 51°19.265 2°52.374 6.7 349 13.9 101760 48
2010-09-29 05:37:12 51°19.283 2°52.375 6.6 349 13.9 101760 47
2010-09-29 05:37:17 51°19.302 2°52.375 6.3 279 13.9 101760 47
2010-09-29 05:37:22 51°19.321 2°52.375 7.3 350 13.9 101760 47
2010-09-29 05:37:27 51°19.339 2°52.375 7 347 13.9 101760 47
2010-09-29 05:37:32 51°19.358 2°52.376 7.4 348 13.9 101750 47
2010-09-29 05:37:37 51°19.376 2°52.376 7 348 13.9 101750 47
2010-09-29 05:37:42 51°19.395 2°52.377 6.8 349 13.9 101750 46
2010-09-29 05:37:47 51°19.413 2°52.377 7.3 346 13.9 101750 46
2010-09-29 05:37:52 51°19.432 2°52.376 7.8 349 13.9 101750 48
2010-09-29 05:37:57 51°19.451 2°52.377 6.4 348 13.9 101750 48
2010-09-29 05:38:02 51°19.47 2°52.377 6.6 348 13.9 101760 48
2010-09-29 05:38:07 51°19.488 2°52.378 6.3 348 13.9 101760 48
2010-09-29 05:38:12 51°19.507 2°52.379 6.6 349 13.9 101760 47
2010-09-29 05:38:17 51°19.526 2°52.38 6.4 347 13.9 101760 47
2010-09-29 05:38:22 51°19.545 2°52.38 7.2 348 13.9 101760 47
2010-09-29 05:38:28 51°19.568 2°52.381 6.8 347 13.9 101760 47
2010-09-29 05:38:32 51°19.584 2°52.381 8 348 13.9 101760 47
2010-09-29 05:38:37 51°19.603 2°52.381 7.3 348 13.9 101760 47
2010-09-29 05:38:42 51°19.622 2°52.382 7 349 13.9 101760 47
2010-09-29 05:38:47 51°19.642 2°52.383 7.3 349 13.9 101760 47
2010-09-29 05:38:52 51°19.661 2°52.383 6.8 349 13.9 101750 46
2010-09-29 05:38:57 51°19.68 2°52.384 6.4 346 13.9 101750 46
2010-09-29 05:39:02 51°19.699 2°52.384 7.3 347 13.9 101760 46
2010-09-29 05:39:07 51°19.719 2°52.385 7.7 347 13.9 101760 46
2010-09-29 05:39:12 51°19.738 2°52.385 7 347 13.9 101750 48
2010-09-29 05:39:17 51°19.758 2°52.386 6.8 277 13.9 101750 48
2010-09-29 05:39:22 51°19.777 2°52.387 6.5 348 13.9 101750 47
2010-09-29 05:39:27 51°19.796 2°52.388 7.3 348 13.9 101750 47
2010-09-29 05:39:32 51°19.815 2°52.388 7.5 348 13.9 101750 48
2010-09-29 05:39:37 51°19.835 2°52.389 6.7 348 13.9 101750 48
2010-09-29 05:39:42 51°19.854 2°52.39 6.7 348 13.9 101760 48
2010-09-29 05:39:47 51°19.873 2°52.391 6.9 349 13.9 101760 48
2010-09-29 05:39:52 51°19.893 2°52.391 7 350 13.9 101750 46
2010-09-29 05:39:57 51°19.912 2°52.392 7.1 349 13.9 101750 46
2010-09-29 05:40:02 51°19.931 2°52.393 7.7 349 13.9 101750 47
2010-09-29 05:40:07 51°19.951 2°52.394 6.3 349 13.9 101750 47
2010-09-29 05:40:12 51°19.97 2°52.395 7.3 349 13.9 101760 46
2010-09-29 05:40:17 51°19.99 2°52.396 7.3 348 13.9 101760 46
2010-09-29 05:40:22 51°20.009 2°52.397 6.8 348 13.9 101760 46
2010-09-29 05:40:28 51°20.033 2°52.397 7.2 348 13.9 101760 46
2010-09-29 05:40:32 51°20.048 2°52.398 7.3 348 13.9 101750 48
2010-09-29 05:40:37 51°20.068 2°52.399 7.9 347 13.9 101750 48
2010-09-29 05:40:42 51°20.087 2°52.4 7.4 348 13.9 101760 46
2010-09-29 05:40:47 51°20.107 2°52.401 7.4 348 13.9 101760 46
2010-09-29 05:40:52 51°20.127 2°52.401 7.1 348 13.9 101760 46
2010-09-29 05:40:57 51°20.146 2°52.402 6.7 348 13.9 101760 46
2010-09-29 05:41:02 51°20.165 2°52.403 7 347 13.9 101760 48
2010-09-29 05:41:07 51°20.185 2°52.403 6.6 348 13.9 101760 48
2010-09-29 05:41:12 51°20.204 2°52.403 7 348 13.9 101760 46
2010-09-29 05:41:17 51°20.223 2°52.403 7.4 347 13.9 101760 46
2010-09-29 05:41:22 51°20.243 2°52.403 6.6 347 13.9 101760 49
2010-09-29 05:41:27 51°20.262 2°52.403 7.4 347 13.9 101760 49
2010-09-29 05:41:32 51°20.28 2°52.403 6.8 348 13.9 101760 47
2010-09-29 05:41:37 51°20.299 2°52.402 6.7 348 13.9 101760 47
2010-09-29 05:41:42 51°20.319 2°52.401 7 350 13.9 101760 46
2010-09-29 05:41:47 51°20.338 2°52.4 6.8 349 13.9 101760 46
2010-09-29 05:41:52 51°20.357 2°52.398 6.6 348 13.9 101760 48
2010-09-29 05:41:57 51°20.376 2°52.395 6.9 350 13.9 101760 48
2010-09-29 05:42:02 51°20.395 2°52.394 7.1 349 13.9 101760 45
2010-09-29 05:42:07 51°20.414 2°52.392 7.1 349 13.9 101760 45
2010-09-29 05:42:12 51°20.433 2°52.389 6.6 346 13.9 101760 46
2010-09-29 05:42:17 51°20.452 2°52.387 6.9 349 13.9 101760 46
2010-09-29 05:42:22 51°20.471 2°52.384 7.2 349 13.9 101760 46
2010-09-29 05:42:27 51°20.49 2°52.381 6.2 350 13.9 101760 46
2010-09-29 05:42:32 51°20.509 2°52.379 6.5 349 13.9 101760 46
2010-09-29 05:42:37 51°20.528 2°52.377 6 350 13.9 101760 46
2010-09-29 05:42:42 51°20.547 2°52.374 6.6 350 13.9 101750 46
2010-09-29 05:42:47 51°20.566 2°52.371 6.5 349 13.9 101750 46
2010-09-29 05:42:52 51°20.585 2°52.369 6.5 349 13.9 101750 46
2010-09-29 05:42:57 51°20.604 2°52.366 6.6 350 13.9 101750 46
2010-09-29 05:43:02 51°20.623 2°52.364 6 349 13.9 101760 46
2010-09-29 05:43:07 51°20.642 2°52.361 6.6 349 13.9 101760 46
2010-09-29 05:43:12 51°20.661 2°52.359 7 346 13.9 101760 46
2010-09-29 05:43:17 51°20.68 2°52.356 6.7 349 13.9 101760 46
2010-09-29 05:43:22 51°20.699 2°52.355 7.1 348 13.9 101760 46
2010-09-29 05:43:27 51°20.718 2°52.353 7 348 13.9 101760 46
2010-09-29 05:43:32 51°20.737 2°52.351 6.8 351 13.9 101760 46
2010-09-29 05:43:37 51°20.756 2°52.35 7.1 350 13.9 101760 46
2010-09-29 05:43:42 51°20.775 2°52.347 6.8 350 13.9 101750 47
2010-09-29 05:43:47 51°20.793 2°52.346 7 349 13.9 101750 47
2010-09-29 05:43:52 51°20.812 2°52.343 7 349 13.9 101760 46
2010-09-29 05:43:57 51°20.831 2°52.341 6.6 349 13.9 101760 46
2010-09-29 05:44:02 51°20.85 2°52.339 7 349 13.9 101760 46
2010-09-29 05:44:07 51°20.869 2°52.338 7.3 351 13.9 101760 46
2010-09-29 05:44:12 51°20.888 2°52.335 6.9 351 13.9 101750 46
2010-09-29 05:44:17 51°20.907 2°52.333 6.6 351 13.9 101750 46
2010-09-29 05:44:22 51°20.926 2°52.332 6.1 352 13.9 101750 48
2010-09-29 05:44:27 51°20.945 2°52.33 6.8 351 13.9 101750 48
2010-09-29 05:44:32 51°20.964 2°52.328 7.5 351 13.9 101760 46
2010-09-29 05:44:37 51°20.983 2°52.326 7 353 13.9 101760 46
2010-09-29 05:44:42 51°21.002 2°52.325 7.7 351 13.9 101760 47
2010-09-29 05:44:47 51°21.021 2°52.323 6.7 351 13.9 101760 47
2010-09-29 05:44:52 51°21.039 2°52.321 7.4 352 13.9 101760 47
2010-09-29 05:44:57 51°21.059 2°52.319 6.5 352 13.9 101760 47
2010-09-29 05:45:02 51°21.078 2°52.317 6.8 350 13.9 101750 48
2010-09-29 05:45:07 51°21.096 2°52.314 6.6 350 13.9 101750 48
2010-09-29 05:45:12 51°21.115 2°52.312 6.4 353 13.9 101750 48
2010-09-29 05:45:17 51°21.134 2°52.311 7.4 349 13.9 101750 48
2010-09-29 05:45:22 51°21.153 2°52.308 6.4 350 13.9 101750 47
2010-09-29 05:45:27 51°21.172 2°52.306 7 351 13.9 101750 47
2010-09-29 05:45:32 51°21.191 2°52.304 7.4 350 13.9 101750 47
2010-09-29 05:45:37 51°21.21 2°52.302 7.6 350 13.9 101750 47
2010-09-29 05:45:42 51°21.229 2°52.3 6.9 353 14 101760 46
2010-09-29 05:45:47 51°21.248 2°52.298 7 353 14 101760 46
2010-09-29 05:45:52 51°21.267 2°52.296 7 353 14 101760 46
2010-09-29 05:45:57 51°21.286 2°52.294 6.6 354 14 101760 46
2010-09-29 05:46:02 51°21.305 2°52.292 7.6 354 14 101760 47
2010-09-29 05:46:07 51°21.323 2°52.29 6.2 352 14 101760 47
2010-09-29 05:46:12 51°21.342 2°52.288 6.7 354 14 101760 48
2010-09-29 05:46:17 51°21.361 2°52.286 6.3 353 14 101760 48
2010-09-29 05:46:22 51°21.38 2°52.284 7.2 351 13.9 101760 48
2010-09-29 05:46:27 51°21.399 2°52.281 6.4 353 13.9 101760 48
2010-09-29 05:46:32 51°21.417 2°52.279 6.5 352 14 101750 46
2010-09-29 05:46:37 51°21.436 2°52.277 6.6 354 14 101750 46
2010-09-29 05:46:42 51°21.455 2°52.275 6.5 353 13.9 101750 46
2010-09-29 05:46:47 51°21.474 2°52.273 6.1 352 13.9 101750 46
2010-09-29 05:46:52 51°21.493 2°52.271 6.3 354 13.9 101760 48
2010-09-29 05:46:57 51°21.511 2°52.269 7.2 353 13.9 101760 48
2010-09-29 05:47:02 51°21.53 2°52.267 7.3 352 13.9 101760 46
2010-09-29 05:47:07 51°21.549 2°52.265 6.4 353 13.9 101760 46
2010-09-29 05:47:12 51°21.568 2°52.263 6.7 352 13.9 101760 48
2010-09-29 05:47:17 51°21.587 2°52.261 7.1 352 13.9 101760 48
2010-09-29 05:47:22 51°21.606 2°52.26 7.1 352 13.9 101760 45
2010-09-29 05:47:28 51°21.628 2°52.257 6.6 353 13.9 101760 45
2010-09-29 05:47:32 51°21.644 2°52.256 7 353 13.9 101760 46
2010-09-29 05:47:37 51°21.662 2°52.254 6 352 13.9 101760 46
2010-09-29 05:47:42 51°21.681 2°52.253 6.5 353 13.9 101750 47
2010-09-29 05:47:47 51°21.701 2°52.251 7 352 13.9 101750 47
2010-09-29 05:47:52 51°21.72 2°52.251 6.7 353 13.9 101750 48
2010-09-29 05:47:57 51°21.739 2°52.249 6.6 356 13.9 101750 48
2010-09-29 05:48:02 51°21.758 2°52.251 6.7 350 13.9 101750 47
2010-09-29 05:48:07 51°21.777 2°52.25 6.4 351 13.9 101750 47
2010-09-29 05:48:12 51°21.797 2°52.253 7 348 13.9 101760 48
2010-09-29 05:48:17 51°21.816 2°52.253 7.8 351 13.9 101760 48
2010-09-29 05:48:22 51°21.836 2°52.256 6.9 350 13.9 101750 48
2010-09-29 05:48:27 51°21.855 2°52.257 6.6 352 13.9 101750 48
2010-09-29 05:48:32 51°21.875 2°52.259 6.8 352 13.9 101750 47
2010-09-29 05:48:37 51°21.894 2°52.261 6.7 351 13.9 101750 47
2010-09-29 05:48:42 51°21.914 2°52.263 6.7 352 13.9 101750 46
2010-09-29 05:48:47 51°21.933 2°52.265 6.8 351 13.9 101750 46
2010-09-29 05:48:52 51°21.953 2°52.268 7 351 13.9 101760 46
2010-09-29 05:48:57 51°21.972 2°52.269 6.9 352 13.9 101760 46
2010-09-29 05:49:02 51°21.992 2°52.27 7.4 350 13.9 101760 48
2010-09-29 05:49:07 51°22.011 2°52.271 7.3 349 13.9 101760 48
2010-09-29 05:49:12 51°22.031 2°52.274 7.3 348 14 101750 49
2010-09-29 05:49:17 51°22.05 2°52.275 6.8 280 14 101750 49
2010-09-29 05:49:22 51°22.07 2°52.277 6.9 351 13.9 101750 48
2010-09-29 05:49:27 51°22.089 2°52.279 6.7 352 13.9 101750 48
2010-09-29 05:49:32 51°22.109 2°52.281 5.7 351 13.9 101750 46
2010-09-29 05:49:37 51°22.128 2°52.282 7.4 351 13.9 101750 46
2010-09-29 05:49:42 51°22.147 2°52.284 7.2 352 13.9 101760 46
2010-09-29 05:49:47 51°22.167 2°52.285 7.2 353 13.9 101760 46
2010-09-29 05:49:53 51°22.19 2°52.288 7.3 351 13.9 101740 48
2010-09-29 05:49:57 51°22.206 2°52.289 6.9 352 13.9 101740 48
2010-09-29 05:50:02 51°22.225 2°52.292 7 353 13.9 101770 48
2010-09-29 05:50:07 51°22.245 2°52.292 7.6 352 13.9 101770 48
2010-09-29 05:50:12 51°22.264 2°52.294 6.7 352 13.9 101750 48
2010-09-29 05:50:17 51°22.284 2°52.297 7.3 350 13.9 101750 48
2010-09-29 05:50:22 51°22.303 2°52.298 7.4 351 13.9 101740 48
2010-09-29 05:50:27 51°22.322 2°52.301 7 350 13.9 101740 48
2010-09-29 05:50:32 51°22.342 2°52.303 7.5 351 13.9 101760 46
2010-09-29 05:50:37 51°22.361 2°52.305 6.8 349 13.9 101760 46
2010-09-29 05:50:42 51°22.381 2°52.307 7.1 351 13.9 101750 48
2010-09-29 05:50:47 51°22.401 2°52.309 6.8 351 13.9 101750 48
2010-09-29 05:50:52 51°22.42 2°52.31 6.9 351 13.9 101760 47
2010-09-29 05:50:57 51°22.44 2°52.312 6.5 352 13.9 101760 47
2010-09-29 05:51:02 51°22.459 2°52.314 6.3 352 13.9 101750 47
2010-09-29 05:51:07 51°22.479 2°52.315 6.7 348 13.9 101750 47
2010-09-29 05:51:12 51°22.499 2°52.318 6.2 351 13.9 101750 46
2010-09-29 05:51:17 51°22.518 2°52.319 7.3 351 13.9 101750 46
2010-09-29 05:51:22 51°22.538 2°52.321 7.1 349 13.9 101760 47
2010-09-29 05:51:27 51°22.557 2°52.322 5.9 350 13.9 101760 47
2010-09-29 05:51:32 51°22.576 2°52.324 6.1 349 13.9 101760 48
2010-09-29 05:51:37 51°22.596 2°52.325 6.6 348 13.9 101760 48
2010-09-29 05:51:42 51°22.616 2°52.327 6.9 349 13.9 101760 49
2010-09-29 05:51:47 51°22.635 2°52.327 7.2 350 13.9 101760 49
2010-09-29 05:51:53 51°22.658 2°52.329 7.1 349 13.9 101750 46
2010-09-29 05:51:57 51°22.674 2°52.33 6.7 350 13.9 101750 46
2010-09-29 05:52:02 51°22.693 2°52.331 7.5 351 13.9 101760 47
2010-09-29 05:52:07 51°22.713 2°52.332 6.3 352 13.9 101760 47
2010-09-29 05:52:13 51°22.736 2°52.334 6.3 351 13.9 101760 49
2010-09-29 05:52:17 51°22.751 2°52.335 6.4 350 13.9 101760 49
2010-09-29 05:52:22 51°22.77 2°52.335 6.6 350 13.9 101760 46
2010-09-29 05:52:27 51°22.789 2°52.337 6.7 348 13.9 101760 46
2010-09-29 05:52:32 51°22.809 2°52.338 6.7 349 13.9 101750 47
2010-09-29 05:52:37 51°22.828 2°52.339 6.9 350 13.9 101750 47
2010-09-29 05:52:42 51°22.847 2°52.34 6.8 351 13.9 101760 45
2010-09-29 05:52:47 51°22.866 2°52.341 6.2 350 13.9 101760 45
2010-09-29 05:52:52 51°22.886 2°52.343 5.8 348 13.9 101760 48
2010-09-29 05:52:57 51°22.905 2°52.344 7 350 13.9 101760 48
2010-09-29 05:53:02 51°22.925 2°52.345 6.6 350 13.9 101760 49
2010-09-29 05:53:07 51°22.944 2°52.347 5.7 353 13.9 101760 49
2010-09-29 05:53:12 51°22.964 2°52.348 5.8 352 13.9 101760 46
2010-09-29 05:53:17 51°22.983 2°52.35 6.1 352 13.9 101760 46
2010-09-29 05:53:22 51°23.002 2°52.351 6.1 349 13.9 101760 46
2010-09-29 05:53:28 51°23.025 2°52.353 5.7 348 13.9 101760 46
2010-09-29 05:53:32 51°23.041 2°52.354 6 350 13.9 101750 48
2010-09-29 05:53:37 51°23.06 2°52.355 6.5 349 13.9 101750 48
2010-09-29 05:53:42 51°23.079 2°52.356 6.1 349 13.9 101760 46
2010-09-29 05:53:47 51°23.099 2°52.358 5.7 349 13.9 101760 46
2010-09-29 05:53:52 51°23.118 2°52.359 5 352 13.9 101760 48
2010-09-29 05:53:57 51°23.137 2°52.361 6 349 13.9 101760 48
2010-09-29 05:54:02 51°23.157 2°52.362 5.6 350 14 101760 49
2010-09-29 05:54:07 51°23.176 2°52.364 6 349 14 101760 49
2010-09-29 05:54:12 51°23.196 2°52.365 5.8 348 14 101750 48
2010-09-29 05:54:17 51°23.215 2°52.367 6 276 14 101750 48
2010-09-29 05:54:22 51°23.235 2°52.368 6.1 352 14 101750 48
2010-09-29 05:54:27 51°23.254 2°52.37 7 351 14 101750 48
2010-09-29 05:54:33 51°23.278 2°52.371 5.7 348 14 101760 46
2010-09-29 05:54:37 51°23.293 2°52.373 6.1 351 14 101760 46
2010-09-29 05:54:42 51°23.313 2°52.374 6.2 349 14 101760 47
2010-09-29 05:54:47 51°23.333 2°52.376 6.2 351 14 101760 47
2010-09-29 05:54:52 51°23.353 2°52.376 6 352 14 101760 49
2010-09-29 05:54:57 51°23.372 2°52.378 6.6 351 14 101760 49
2010-09-29 05:55:02 51°23.392 2°52.38 6.1 350 14 101760 47
2010-09-29 05:55:07 51°23.412 2°52.382 6.9 350 14 101760 47
2010-09-29 05:55:12 51°23.432 2°52.383 6.5 351 14 101760 48
2010-09-29 05:55:17 51°23.452 2°52.385 6.2 349 14 101760 48
2010-09-29 05:55:22 51°23.472 2°52.385 6.5 350 14 101750 45
2010-09-29 05:55:27 51°23.491 2°52.387 7.5 351 14 101750 45
2010-09-29 05:55:32 51°23.511 2°52.387 7.4 350 14 101760 48
2010-09-29 05:55:37 51°23.531 2°52.389 6.7 352 14 101760 48
2010-09-29 05:55:42 51°23.551 2°52.39 6.5 352 14 101750 46
2010-09-29 05:55:47 51°23.571 2°52.392 6.7 352 14 101750 46
2010-09-29 05:55:52 51°23.59 2°52.393 7.4 353 14 101770 46
2010-09-29 05:55:57 51°23.61 2°52.394 6.6 352 14 101770 46
2010-09-29 05:56:02 51°23.63 2°52.395 6.1 353 14 101760 48
2010-09-29 05:56:07 51°23.65 2°52.397 7 350 14 101760 48
2010-09-29 05:56:12 51°23.67 2°52.398 6.4 352 14 101760 46
2010-09-29 05:56:17 51°23.69 2°52.399 5.7 351 14 101760 46
2010-09-29 05:56:22 51°23.709 2°52.4 6.3 351 14 101750 48
2010-09-29 05:56:27 51°23.729 2°52.401 5.5 351 14 101750 48
2010-09-29 05:56:32 51°23.749 2°52.402 6 352 14 101760 47
2010-09-29 05:56:37 51°23.769 2°52.403 6.4 352 14 101760 47
2010-09-29 05:56:42 51°23.788 2°52.404 6.4 350 14 101750 46
2010-09-29 05:56:47 51°23.808 2°52.405 6.8 352 14 101750 46
2010-09-29 05:56:52 51°23.828 2°52.407 6 351 14 101750 47
2010-09-29 05:56:57 51°23.848 2°52.408 7 353 14 101750 47
2010-09-29 05:57:02 51°23.868 2°52.409 6.1 351 13.9 101760 46
2010-09-29 05:57:07 51°23.888 2°52.409 7.4 352 13.9 101760 46
2010-09-29 05:57:12 51°23.907 2°52.41 6.6 350 13.9 101760 47
2010-09-29 05:57:17 51°23.927 2°52.411 6.5 351 13.9 101760 47
2010-09-29 05:57:22 51°23.947 2°52.412 6.3 351 14 101760 47
2010-09-29 05:57:27 51°23.966 2°52.413 7.3 349 14 101760 47
2010-09-29 05:57:32 51°23.986 2°52.414 6.4 352 14 101760 46
2010-09-29 05:57:37 51°24.006 2°52.414 7.5 354 14 101760 46
2010-09-29 05:57:42 51°24.025 2°52.415 7.6 352 14 101760 46
2010-09-29 05:57:47 51°24.045 2°52.416 7.4 353 14 101760 46
2010-09-29 05:57:52 51°24.064 2°52.417 6.6 353 14 101760 49
2010-09-29 05:57:57 51°24.084 2°52.418 7.1 351 14 101760 49
2010-09-29 05:58:02 51°24.103 2°52.419 6.7 350 14 101760 45
2010-09-29 05:58:07 51°24.123 2°52.419 7.1 352 14 101760 45
2010-09-29 05:58:12 51°24.143 2°52.42 7.3 350 14 101750 48
2010-09-29 05:58:17 51°24.162 2°52.42 6.2 352 14 101750 48
2010-09-29 05:58:22 51°24.182 2°52.421 7.2 352 14 101760 46
2010-09-29 05:58:27 51°24.201 2°52.422 6.6 353 14 101760 46
2010-09-29 05:58:32 51°24.221 2°52.422 7 349 14 101750 47
2010-09-29 05:58:37 51°24.24 2°52.422 7.1 352 14 101750 47
2010-09-29 05:58:42 51°24.26 2°52.423 6.6 350 14 101750 47
2010-09-29 05:58:47 51°24.279 2°52.423 6.6 350 14 101750 47
2010-09-29 05:58:52 51°24.299 2°52.423 7 351 14 101760 49
2010-09-29 05:58:57 51°24.318 2°52.424 6.6 352 14 101760 49
2010-09-29 05:59:02 51°24.338 2°52.424 6.6 353 14 101750 47
2010-09-29 05:59:07 51°24.357 2°52.424 6.5 354 14 101750 47
2010-09-29 05:59:13 51°24.38 2°52.424 6.7 351 14 101750 48
2010-09-29 05:59:17 51°24.396 2°52.425 6.8 353 14 101750 48
2010-09-29 05:59:22 51°24.416 2°52.425 6.4 353 14 101750 46
2010-09-29 05:59:27 51°24.435 2°52.426 6.7 353 14 101750 46
2010-09-29 05:59:32 51°24.454 2°52.426 6.3 354 14 101750 47
2010-09-29 05:59:37 51°24.474 2°52.427 6.5 352 14 101750 47
2010-09-29 05:59:42 51°24.493 2°52.427 6.8 353 14 101750 46
2010-09-29 05:59:47 51°24.513 2°52.427 6.5 353 14 101750 46
2010-09-29 05:59:52 51°24.532 2°52.427 7.1 351 14 101750 49
2010-09-29 05:59:57 51°24.552 2°52.429 6.6 351 14 101750 49
2010-09-29 06:00:02 51°24.571 2°52.429 6.4 350 14 101750 46
2010-09-29 06:00:07 51°24.59 2°52.429 6.7 352 14 101750 46
2010-09-29 06:00:12 51°24.609 2°52.43 6.5 351 14 101750 48
2010-09-29 06:00:17 51°24.629 2°52.429 7.6 351 14 101750 48
2010-09-29 06:00:22 51°24.648 2°52.43 6.7 351 14 101750 47
2010-09-29 06:00:28 51°24.671 2°52.43 6.2 352 14 101750 47
2010-09-29 06:00:32 51°24.687 2°52.431 6 353 14.1 101760 47
2010-09-29 06:00:37 51°24.706 2°52.431 6.2 350 14.1 101760 47
2010-09-29 06:00:42 51°24.726 2°52.431 6.7 350 14 101760 47
2010-09-29 06:00:47 51°24.745 2°52.431 7.6 351 14 101760 47
2010-09-29 06:00:52 51°24.764 2°52.432 6.6 350 14 101760 46
2010-09-29 06:00:57 51°24.784 2°52.432 7.4 350 14 101760 46
2010-09-29 06:01:02 51°24.803 2°52.433 7.3 351 14.1 101760 46
2010-09-29 06:01:07 51°24.822 2°52.433 7.4 351 14.1 101760 46
2010-09-29 06:01:13 51°24.846 2°52.432 6.8 352 14.1 101750 47
2010-09-29 06:01:17 51°24.861 2°52.433 6.7 350 14.1 101750 47
2010-09-29 06:01:22 51°24.881 2°52.433 7.3 350 14.1 101750 47
2010-09-29 06:01:27 51°24.901 2°52.433 7.3 352 14.1 101750 47
2010-09-29 06:01:32 51°24.92 2°52.434 6.4 353 14.1 101760 49
2010-09-29 06:01:37 51°24.939 2°52.434 6.9 350 14.1 101760 49
2010-09-29 06:01:42 51°24.958 2°52.434 6.8 350 14.1 101760 49
2010-09-29 06:01:47 51°24.977 2°52.433 6 351 14.1 101760 49
2010-09-29 06:01:52 51°24.997 2°52.433 5.9 351 14.1 101750 49
2010-09-29 06:01:57 51°25.016 2°52.432 7.4 352 14.1 101750 49
2010-09-29 06:02:02 51°25.035 2°52.432 6.9 349 14.1 101750 46
2010-09-29 06:02:07 51°25.054 2°52.431 7.3 352 14.1 101750 46
2010-09-29 06:02:12 51°25.073 2°52.431 6.6 348 14.1 101760 49
2010-09-29 06:02:17 51°25.092 2°52.43 7 350 14.1 101760 49
2010-09-29 06:02:22 51°25.111 2°52.43 7.7 351 14.1 101760 47
2010-09-29 06:02:27 51°25.13 2°52.429 6.6 352 14.1 101760 47
2010-09-29 06:02:32 51°25.149 2°52.429 6.7 352 14.1 101760 48
2010-09-29 06:02:37 51°25.168 2°52.428 7.2 352 14.1 101760 48
2010-09-29 06:02:42 51°25.187 2°52.428 7.4 350 14.1 101750 47
2010-09-29 06:02:47 51°25.206 2°52.428 6.5 353 14.1 101750 47
2010-09-29 06:02:52 51°25.226 2°52.429 6.4 351 14.1 101750 48
2010-09-29 06:02:57 51°25.245 2°52.43 6.2 354 14.1 101750 48
2010-09-29 06:03:02 51°25.265 2°52.43 6.5 353 14.1 101760 47
2010-09-29 06:03:07 51°25.284 2°52.431 7.3 353 14.1 101760 47
2010-09-29 06:03:12 51°25.304 2°52.431 7.4 352 14.1 101750 48
2010-09-29 06:03:17 51°25.323 2°52.431 7.3 352 14.1 101750 48
2010-09-29 06:03:22 51°25.342 2°52.432 7.5 352 14 101760 45
2010-09-29 06:03:27 51°25.362 2°52.433 7.7 351 14 101760 45
2010-09-29 06:03:33 51°25.385 2°52.434 6.8 354 14 101750 47
2010-09-29 06:03:37 51°25.401 2°52.435 7.2 353 14 101750 47
2010-09-29 06:03:42 51°25.42 2°52.437 7 353 14 101760 48
2010-09-29 06:03:47 51°25.439 2°52.44 7.8 353 14 101760 48
2010-09-29 06:03:52 51°25.458 2°52.443 8.4 352 14 101760 48
2010-09-29 06:03:57 51°25.477 2°52.446 8 353 14 101760 48
2010-09-29 06:04:02 51°25.496 2°52.45 7.4 355 14 101760 47
2010-09-29 06:04:07 51°25.516 2°52.454 7.6 351 14 101760 47
2010-09-29 06:04:12 51°25.535 2°52.46 7.5 354 14 101760 47
2010-09-29 06:04:17 51°25.555 2°52.464 6.8 350 14 101760 47
2010-09-29 06:04:22 51°25.574 2°52.47 7.3 354 14.1 101760 47
2010-09-29 06:04:27 51°25.593 2°52.476 7.5 353 14.1 101760 47
2010-09-29 06:04:32 51°25.613 2°52.481 8 354 14 101750 46
2010-09-29 06:04:37 51°25.632 2°52.486 7.3 351 14 101750 46
2010-09-29 06:04:42 51°25.651 2°52.492 7.6 351 14.1 101750 46
2010-09-29 06:04:47 51°25.67 2°52.499 7.5 350 14.1 101750 46
2010-09-29 06:04:52 51°25.689 2°52.506 8 351 14 101750 47
2010-09-29 06:04:57 51°25.708 2°52.513 8.9 352 14 101750 47
2010-09-29 06:05:02 51°25.727 2°52.521 8.5 350 14 101750 46
2010-09-29 06:05:07 51°25.746 2°52.528 9 350 14 101750 46
2010-09-29 06:05:12 51°25.765 2°52.536 8.4 352 14 101750 46
2010-09-29 06:05:17 51°25.784 2°52.544 8.4 351 14 101750 46
2010-09-29 06:05:22 51°25.803 2°52.551 7.8 352 14 101750 46
2010-09-29 06:05:27 51°25.822 2°52.559 8.5 352 14 101750 46
2010-09-29 06:05:32 51°25.84 2°52.567 7.8 351 14 101760 48
2010-09-29 06:05:37 51°25.86 2°52.574 7.9 351 14 101760 48
2010-09-29 06:05:42 51°25.878 2°52.582 7.9 349 14 101760 48
2010-09-29 06:05:47 51°25.898 2°52.588 7.2 353 14 101760 48
2010-09-29 06:05:52 51°25.917 2°52.596 7.1 350 14 101760 46
2010-09-29 06:05:57 51°25.936 2°52.603 7.8 351 14 101760 46
2010-09-29 06:06:02 51°25.955 2°52.611 7.8 352 14 101750 47
2010-09-29 06:06:07 51°25.974 2°52.618 9.1 350 14 101750 47
2010-09-29 06:06:12 51°25.992 2°52.626 8.1 350 14 101760 46
2010-09-29 06:06:17 51°26.011 2°52.634 8.7 351 14 101760 46
2010-09-29 06:06:22 51°26.031 2°52.641 8.1 351 14 101750 46
2010-09-29 06:06:27 51°26.05 2°52.649 7.9 351 14 101750 46
2010-09-29 06:06:32 51°26.069 2°52.656 8.5 348 14.1 101760 47
2010-09-29 06:06:37 51°26.087 2°52.665 8.3 350 14.1 101760 47
2010-09-29 06:06:42 51°26.106 2°52.672 8.6 349 14.1 101760 48
2010-09-29 06:06:47 51°26.126 2°52.679 8.5 350 14.1 101760 48
2010-09-29 06:06:52 51°26.144 2°52.686 8.5 349 14 101750 47
2010-09-29 06:06:57 51°26.163 2°52.694 8.3 350 14 101750 47
2010-09-29 06:07:02 51°26.183 2°52.701 9 350 14.1 101760 48
2010-09-29 06:07:07 51°26.202 2°52.708 7.4 349 14.1 101760 48
2010-09-29 06:07:12 51°26.221 2°52.715 7.9 348 14.1 101760 46
2010-09-29 06:07:17 51°26.24 2°52.722 8.3 350 14.1 101760 46
2010-09-29 06:07:22 51°26.259 2°52.73 8.1 349 14.1 101770 48
2010-09-29 06:07:27 51°26.278 2°52.737 7.5 349 14.1 101770 48
2010-09-29 06:07:32 51°26.297 2°52.744 7.5 349 14 101760 48
2010-09-29 06:07:37 51°26.316 2°52.752 7.3 351 14 101760 48
2010-09-29 06:07:42 51°26.335 2°52.759 7.4 352 14 101760 46
2010-09-29 06:07:47 51°26.354 2°52.767 6.8 351 14 101760 46
2010-09-29 06:07:52 51°26.373 2°52.774 8.2 349 14 101760 46
2010-09-29 06:07:57 51°26.391 2°52.782 7.4 351 14 101760 46
2010-09-29 06:08:02 51°26.411 2°52.788 7.8 348 14 101750 47
2010-09-29 06:08:07 51°26.43 2°52.796 8.4 347 14 101750 47
2010-09-29 06:08:13 51°26.453 2°52.805 8.6 350 14 101760 46
2010-09-29 06:08:17 51°26.468 2°52.812 7.2 350 14 101760 46
2010-09-29 06:08:22 51°26.487 2°52.819 7 349 14 101750 46
2010-09-29 06:08:27 51°26.505 2°52.826 9.1 350 14 101750 46
2010-09-29 06:08:32 51°26.525 2°52.833 8.4 349 14.1 101760 48
2010-09-29 06:08:37 51°26.544 2°52.84 8.3 350 14.1 101760 48
2010-09-29 06:08:42 51°26.563 2°52.849 7.8 349 14 101750 47
2010-09-29 06:08:47 51°26.582 2°52.855 8.5 350 14 101750 47
2010-09-29 06:08:52 51°26.601 2°52.863 7.3 351 14 101770 46
2010-09-29 06:08:57 51°26.62 2°52.87 7.5 350 14 101770 46
2010-09-29 06:09:02 51°26.639 2°52.878 7.3 349 14 101760 46
2010-09-29 06:09:07 51°26.658 2°52.885 8.2 349 14 101760 46
2010-09-29 06:09:12 51°26.678 2°52.892 7.5 349 14 101760 48
2010-09-29 06:09:17 51°26.697 2°52.9 7 351 14 101760 48
2010-09-29 06:09:22 51°26.716 2°52.907 7.3 351 14 101760 48
2010-09-29 06:09:28 51°26.739 2°52.915 7.6 350 14 101760 48
2010-09-29 06:09:32 51°26.754 2°52.922 8.2 352 14 101760 48
2010-09-29 06:09:37 51°26.773 2°52.928 9 351 14 101760 48
2010-09-29 06:09:42 51°26.792 2°52.935 8.1 351 14 101760 46
2010-09-29 06:09:47 51°26.811 2°52.941 7.5 351 14 101760 46
2010-09-29 06:09:52 51°26.83 2°52.948 8.2 350 14 101770 46
2010-09-29 06:09:57 51°26.849 2°52.954 7.9 351 14 101770 46
2010-09-29 06:10:02 51°26.868 2°52.961 7.1 350 14 101760 48
2010-09-29 06:10:07 51°26.887 2°52.967 7.5 350 14 101760 48
2010-09-29 06:10:13 51°26.91 2°52.976 8.2 349 14 101760 46
2010-09-29 06:10:17 51°26.925 2°52.98 7.7 349 14 101760 46
2010-09-29 06:10:22 51°26.944 2°52.988 7.8 350 13.9 101760 48
2010-09-29 06:10:27 51°26.963 2°52.993 7.8 349 13.9 101760 48
2010-09-29 06:10:32 51°26.981 2°53.001 8.1 352 14 101760 47
2010-09-29 06:10:37 51°27 2°53.007 7.6 349 14 101760 47
2010-09-29 06:10:42 51°27.019 2°53.014 8.8 350 13.9 101760 45
2010-09-29 06:10:47 51°27.038 2°53.02 7.9 349 13.9 101760 45
2010-09-29 06:10:52 51°27.057 2°53.026 7.8 349 13.9 101760 46
2010-09-29 06:10:57 51°27.076 2°53.033 7.5 350 13.9 101760 46
2010-09-29 06:11:02 51°27.094 2°53.039 7.4 352 14 101760 46
2010-09-29 06:11:07 51°27.113 2°53.046 8.1 351 14 101760 46
2010-09-29 06:11:12 51°27.132 2°53.052 8.3 349 14 101750 46
2010-09-29 06:11:17 51°27.151 2°53.059 7.3 352 14 101750 46
2010-09-29 06:11:22 51°27.17 2°53.065 8.1 348 13.9 101760 47
2010-09-29 06:11:27 51°27.189 2°53.071 8 350 13.9 101760 47
2010-09-29 06:11:32 51°27.208 2°53.078 7.6 349 14 101760 47
2010-09-29 06:11:37 51°27.227 2°53.084 7.9 353 14 101760 47
2010-09-29 06:11:42 51°27.246 2°53.09 7 353 14 101760 48
2010-09-29 06:11:47 51°27.264 2°53.097 7.2 351 14 101760 48
2010-09-29 06:11:52 51°27.284 2°53.103 7.8 351 14 101750 46
2010-09-29 06:11:57 51°27.303 2°53.111 7 349 14 101750 46
2010-09-29 06:12:02 51°27.321 2°53.117 7.5 349 14 101750 47
2010-09-29 06:12:07 51°27.34 2°53.124 7.5 350 14 101750 47
2010-09-29 06:12:12 51°27.359 2°53.13 8.2 349 14 101760 46
2010-09-29 06:12:17 51°27.378 2°53.137 7.7 350 14 101760 46
2010-09-29 06:12:22 51°27.397 2°53.142 6.9 351 14 101750 46
2010-09-29 06:12:27 51°27.416 2°53.149 7.9 349 14 101750 46
2010-09-29 06:12:33 51°27.438 2°53.157 7.3 351 13.9 101760 48
2010-09-29 06:12:37 51°27.454 2°53.161 6.4 353 13.9 101760 48
2010-09-29 06:12:42 51°27.472 2°53.168 6.5 352 13.9 101760 48
2010-09-29 06:12:47 51°27.491 2°53.174 6.8 352 13.9 101760 48
2010-09-29 06:12:52 51°27.51 2°53.179 7 351 13.9 101760 46
2010-09-29 06:12:57 51°27.529 2°53.185 7.8 355 13.9 101760 46
2010-09-29 06:13:02 51°27.548 2°53.191 7.5 351 13.9 101770 48
2010-09-29 06:13:07 51°27.566 2°53.198 7.7 353 13.9 101770 48
2010-09-29 06:13:12 51°27.585 2°53.204 7 350 13.9 101770 48
2010-09-29 06:13:17 51°27.604 2°53.21 8.3 350 13.9 101770 48
2010-09-29 06:13:22 51°27.623 2°53.217 8.5 350 13.9 101760 46
2010-09-29 06:13:27 51°27.642 2°53.223 7.8 353 13.9 101760 46
2010-09-29 06:13:32 51°27.661 2°53.229 7.6 351 13.9 101750 46
2010-09-29 06:13:37 51°27.68 2°53.235 6.9 352 13.9 101750 46
2010-09-29 06:13:42 51°27.699 2°53.24 6.9 352 13.9 101760 46
2010-09-29 06:13:47 51°27.718 2°53.246 7.6 351 13.9 101760 46
2010-09-29 06:13:52 51°27.737 2°53.252 6.8 351 13.9 101760 46
2010-09-29 06:13:57 51°27.756 2°53.258 7.1 352 13.9 101760 46
2010-09-29 06:14:02 51°27.775 2°53.264 6.5 353 13.9 101760 45
2010-09-29 06:14:07 51°27.794 2°53.27 7 352 13.9 101760 45
2010-09-29 06:14:12 51°27.812 2°53.276 7.2 351 13.9 101760 46
2010-09-29 06:14:17 51°27.831 2°53.283 6.5 277 13.9 101760 46
2010-09-29 06:14:22 51°27.85 2°53.288 7.2 350 13.9 101760 46
2010-09-29 06:14:27 51°27.869 2°53.296 7.7 352 13.9 101760 46
2010-09-29 06:14:33 51°27.891 2°53.302 7.9 352 14 101760 46
2010-09-29 06:14:37 51°27.906 2°53.308 7.4 354 14 101760 46
2010-09-29 06:14:42 51°27.925 2°53.314 7.6 351 14 101750 47
2010-09-29 06:14:47 51°27.943 2°53.32 7.6 353 14 101750 47
2010-09-29 06:14:52 51°27.962 2°53.327 8.7 354 14 101760 46
2010-09-29 06:14:57 51°27.981 2°53.333 9.2 354 14 101760 46
2010-09-29 06:15:02 51°27.999 2°53.34 8.2 354 14 101760 46
2010-09-29 06:15:07 51°28.018 2°53.346 7.6 352 14 101760 46
2010-09-29 06:15:12 51°28.037 2°53.352 8.2 355 14 101760 46
2010-09-29 06:15:17 51°28.056 2°53.358 7.4 354 14 101760 46
2010-09-29 06:15:22 51°28.075 2°53.365 8.1 352 14 101760 48
2010-09-29 06:15:27 51°28.094 2°53.371 7.4 355 14 101760 48
2010-09-29 06:15:32 51°28.113 2°53.377 6.9 353 14 101760 47
2010-09-29 06:15:37 51°28.132 2°53.383 7 353 14 101760 47
2010-09-29 06:15:42 51°28.151 2°53.389 7.5 352 14 101760 48
2010-09-29 06:15:47 51°28.17 2°53.395 7.8 355 14 101760 48
2010-09-29 06:15:52 51°28.189 2°53.402 7.8 353 13.9 101760 46
2010-09-29 06:15:57 51°28.209 2°53.408 6.9 352 13.9 101760 46
2010-09-29 06:16:02 51°28.228 2°53.414 7.1 353 13.9 101760 47
2010-09-29 06:16:07 51°28.247 2°53.42 7.5 351 13.9 101760 47
2010-09-29 06:16:12 51°28.266 2°53.426 7.8 354 14 101760 46
2010-09-29 06:16:17 51°28.285 2°53.433 7.1 354 14 101760 46
2010-09-29 06:16:22 51°28.304 2°53.438 7 354 14 101750 46
2010-09-29 06:16:27 51°28.323 2°53.445 7.2 349 14 101750 46
2010-09-29 06:16:32 51°28.343 2°53.451 8 353 14 101750 46
2010-09-29 06:16:37 51°28.361 2°53.458 6.9 353 14 101750 46
2010-09-29 06:16:42 51°28.381 2°53.464 8.1 351 14 101750 45
2010-09-29 06:16:47 51°28.4 2°53.47 6.8 354 14 101750 45
2010-09-29 06:16:52 51°28.419 2°53.476 6.8 355 13.9 101760 46
2010-09-29 06:16:57 51°28.438 2°53.483 7 352 13.9 101760 46
2010-09-29 06:17:02 51°28.457 2°53.489 6.8 351 13.9 101760 46
2010-09-29 06:17:07 51°28.476 2°53.495 7.2 354 13.9 101760 46
2010-09-29 06:17:12 51°28.495 2°53.502 7.8 353 13.9 101750 46
2010-09-29 06:17:17 51°28.514 2°53.508 7.7 356 13.9 101750 46
2010-09-29 06:17:22 51°28.534 2°53.516 7 353 13.9 101760 46
2010-09-29 06:17:27 51°28.553 2°53.522 8.1 354 13.9 101760 46
2010-09-29 06:17:32 51°28.572 2°53.529 8.1 354 13.9 101760 45
2010-09-29 06:17:37 51°28.591 2°53.535 7.6 355 13.9 101760 45
2010-09-29 06:17:42 51°28.611 2°53.543 7.8 354 13.9 101750 46
2010-09-29 06:17:47 51°28.63 2°53.549 6.8 358 13.9 101750 46
2010-09-29 06:17:52 51°28.649 2°53.556 7.7 357 13.9 101760 47
2010-09-29 06:17:57 51°28.669 2°53.563 6.7 357 13.9 101760 47
2010-09-29 06:18:02 51°28.688 2°53.569 7 357 13.9 101760 46
2010-09-29 06:18:07 51°28.706 2°53.577 6.8 354 13.9 101760 46
2010-09-29 06:18:12 51°28.726 2°53.583 7.2 357 13.9 101760 46
2010-09-29 06:18:17 51°28.745 2°53.591 7.2 356 13.9 101760 46
2010-09-29 06:18:22 51°28.764 2°53.597 8.3 355 13.9 101750 46
2010-09-29 06:18:27 51°28.783 2°53.605 6.1 355 13.9 101750 46
2010-09-29 06:18:32 51°28.801 2°53.611 6.4 358 13.9 101770 46
2010-09-29 06:18:37 51°28.82 2°53.618 6.9 355 13.9 101770 46
2010-09-29 06:18:42 51°28.839 2°53.624 6.8 356 13.9 101760 46
2010-09-29 06:18:47 51°28.859 2°53.631 7 356 13.9 101760 46
2010-09-29 06:18:52 51°28.878 2°53.638 7.8 356 13.9 101750 45
2010-09-29 06:18:57 51°28.897 2°53.645 6.5 358 13.9 101750 45
2010-09-29 06:19:02 51°28.916 2°53.651 6.2 356 13.9 101770 48
2010-09-29 06:19:07 51°28.935 2°53.657 7 357 13.9 101770 48
2010-09-29 06:19:12 51°28.954 2°53.664 6.6 356 13.9 101760 45
2010-09-29 06:19:17 51°28.973 2°53.67 7 354 13.9 101760 45
2010-09-29 06:19:22 51°28.993 2°53.677 7 355 13.8 101760 47
2010-09-29 06:19:27 51°29.012 2°53.684 7.4 354 13.8 101760 47
2010-09-29 06:19:32 51°29.031 2°53.691 7.2 353 13.8 101760 46
2010-09-29 06:19:37 51°29.05 2°53.697 6.4 354 13.8 101760 46
2010-09-29 06:19:42 51°29.069 2°53.703 6.8 353 13.8 101770 47
2010-09-29 06:19:47 51°29.088 2°53.71 6.5 356 13.8 101770 47
2010-09-29 06:19:52 51°29.107 2°53.717 8.2 353 13.8 101750 46
2010-09-29 06:19:57 51°29.126 2°53.724 6.6 359 13.8 101750 46
2010-09-29 06:20:02 51°29.145 2°53.731 7.2 356 13.8 101760 47
2010-09-29 06:20:07 51°29.164 2°53.737 7.1 357 13.8 101760 47
2010-09-29 06:20:12 51°29.183 2°53.744 6.9 357 13.8 101760 46
2010-09-29 06:20:17 51°29.202 2°53.75 6.5 352 13.8 101760 46
2010-09-29 06:20:22 51°29.222 2°53.756 7.1 355 13.8 101760 47
2010-09-29 06:20:27 51°29.241 2°53.763 7.1 356 13.8 101760 47
2010-09-29 06:20:32 51°29.26 2°53.77 8.2 355 13.8 101750 46
2010-09-29 06:20:37 51°29.279 2°53.776 6.7 355 13.8 101750 46
2010-09-29 06:20:42 51°29.298 2°53.783 6.6 354 13.8 101760 47
2010-09-29 06:20:47 51°29.317 2°53.789 6.7 354 13.8 101760 47
2010-09-29 06:20:52 51°29.336 2°53.795 5.9 354 13.8 101760 48
2010-09-29 06:20:57 51°29.355 2°53.802 7.2 353 13.8 101760 48
2010-09-29 06:21:02 51°29.374 2°53.808 6.3 354 13.8 101760 48
2010-09-29 06:21:07 51°29.393 2°53.815 6.4 354 13.8 101760 48
2010-09-29 06:21:12 51°29.412 2°53.822 7 355 13.8 101760 47
2010-09-29 06:21:17 51°29.432 2°53.829 7.6 354 13.8 101760 47
2010-09-29 06:21:22 51°29.451 2°53.836 7 354 13.8 101780 46
2010-09-29 06:21:27 51°29.47 2°53.844 6.5 353 13.8 101780 46
2010-09-29 06:21:33 51°29.493 2°53.853 6.7 353 13.8 101770 48
2010-09-29 06:21:37 51°29.508 2°53.861 7 355 13.8 101770 48
2010-09-29 06:21:42 51°29.527 2°53.869 7.2 354 13.7 101770 47
2010-09-29 06:21:47 51°29.546 2°53.878 7.1 355 13.7 101770 47
2010-09-29 06:21:52 51°29.565 2°53.887 6.3 355 13.8 101760 47
2010-09-29 06:21:57 51°29.584 2°53.896 6.8 356 13.8 101760 47
2010-09-29 06:22:02 51°29.603 2°53.906 6.3 353 13.8 101770 45
2010-09-29 06:22:07 51°29.622 2°53.915 6.3 353 13.8 101770 45
2010-09-29 06:22:12 51°29.641 2°53.924 6.6 352 13.8 101760 46
2010-09-29 06:22:17 51°29.66 2°53.933 7 354 13.8 101760 46
2010-09-29 06:22:22 51°29.68 2°53.942 6.8 356 13.7 101770 46
2010-09-29 06:22:27 51°29.699 2°53.952 7.7 354 13.7 101770 46
2010-09-29 06:22:32 51°29.718 2°53.961 7 356 13.8 101770 47
2010-09-29 06:22:37 51°29.737 2°53.969 6.9 355 13.8 101770 47
2010-09-29 06:22:42 51°29.756 2°53.979 7.2 355 13.8 101750 46
2010-09-29 06:22:47 51°29.775 2°53.988 6.6 358 13.8 101750 46
2010-09-29 06:22:52 51°29.795 2°53.998 6.7 354 13.8 101760 46
2010-09-29 06:22:57 51°29.814 2°54.006 6.5 356 13.8 101760 46
2010-09-29 06:23:02 51°29.833 2°54.015 6.8 355 13.8 101760 47
2010-09-29 06:23:07 51°29.853 2°54.024 7.6 355 13.8 101760 47
2010-09-29 06:23:12 51°29.872 2°54.034 7.1 355 13.8 101760 47
2010-09-29 06:23:17 51°29.891 2°54.043 6.6 354 13.8 101760 47
2010-09-29 06:23:22 51°29.91 2°54.053 7.2 355 13.8 101770 46
2010-09-29 06:23:28 51°29.934 2°54.063 5.5 356 13.8 101770 46
2010-09-29 06:23:33 51°29.953 2°54.071 6.8 357 13.8 101770 46
2010-09-29 06:23:37 51°29.968 2°54.079 6.3 356 13.8 101770 46
2010-09-29 06:23:42 51°29.987 2°54.088 6.3 357 13.8 101770 46
2010-09-29 06:23:47 51°30.006 2°54.097 6.4 354 13.8 101770 46
2010-09-29 06:23:52 51°30.026 2°54.107 6.4 358 13.8 101750 46
2010-09-29 06:23:57 51°30.045 2°54.116 7.3 352 13.8 101750 46
2010-09-29 06:24:02 51°30.063 2°54.125 6.8 356 13.8 101760 48
2010-09-29 06:24:07 51°30.083 2°54.134 6.4 354 13.8 101760 48
2010-09-29 06:24:12 51°30.102 2°54.144 6.7 354 13.8 101760 46
2010-09-29 06:24:17 51°30.121 2°54.153 6.2 357 13.8 101760 46
2010-09-29 06:24:22 51°30.14 2°54.162 6.7 355 13.8 101760 46
2010-09-29 06:24:27 51°30.159 2°54.171 6.1 355 13.8 101760 46
2010-09-29 06:24:32 51°30.178 2°54.18 6.6 356 13.9 101760 47
2010-09-29 06:24:37 51°30.197 2°54.189 7.6 357 13.9 101760 47
2010-09-29 06:24:42 51°30.216 2°54.199 8.3 356 13.9 101770 47
2010-09-29 06:24:47 51°30.236 2°54.207 8 356 13.9 101770 47
2010-09-29 06:24:52 51°30.255 2°54.217 7.1 356 13.9 101760 46
2010-09-29 06:24:57 51°30.274 2°54.225 7 356 13.9 101760 46
2010-09-29 06:25:02 51°30.293 2°54.235 7 350 13.9 101760 48
2010-09-29 06:25:07 51°30.312 2°54.244 7.8 354 13.9 101760 48
2010-09-29 06:25:12 51°30.331 2°54.253 8.2 357 13.9 101750 47
2010-09-29 06:25:17 51°30.35 2°54.262 7.2 355 13.9 101750 47
2010-09-29 06:25:22 51°30.369 2°54.271 7.7 354 13.9 101760 47
2010-09-29 06:25:27 51°30.389 2°54.28 7.8 356 13.9 101760 47
2010-09-29 06:25:33 51°30.411 2°54.291 7.7 357 13.9 101760 48
2010-09-29 06:25:37 51°30.427 2°54.297 7.3 352 13.9 101760 48
2010-09-29 06:25:42 51°30.446 2°54.307 8.7 355 13.9 101770 46
2010-09-29 06:25:47 51°30.465 2°54.315 8.6 356 13.9 101770 46
2010-09-29 06:25:52 51°30.484 2°54.324 8.4 357 13.9 101760 48
2010-09-29 06:25:57 51°30.504 2°54.332 7.4 356 13.9 101760 48
2010-09-29 06:26:02 51°30.522 2°54.342 7.8 358 13.9 101760 46
2010-09-29 06:26:07 51°30.542 2°54.35 8.1 1 13.9 101760 46